Hourly Weather Roundup
Issued by NWS Central Illinois

Home | Current Version | Previous Version | Graphics & Text | Print | Product List | Glossary On
Versions: 1 2 3 4 5 6 7 8 9 10 11 12 13 14 15 16 17 18 19 20 21 22 23 24 25 26 27 28 29 30 31 32 33 34 35 36 37 38 39 40 41 42 43 44 45 46 47 48 49 50
061
NZUS43 KILX 261910
HWRILX

AREA WEATHER ROUNDUP
NATIONAL WEATHER SERVICE, LINCOLN IL
200 PM CDT FRI AUG 26 2016


CITY           SKY/WX    TMP DP  RH WIND       PRES   REMARKS
BLOOMINGTON    CLOUDY    80  70  71 NE8       30.13F HX  83
CHAMPAIGN      SUNNY     85  71  63 E3        30.10F HX  90
DANVILLE       MOSUNNY   83  72  67 CALM      30.09F HX  88
DECATUR        MOSUNNY   87  74  64 CALM      30.08F HX  95
EFFINGHAM      TSTM      85  80  86 CALM      30.07F HX  98
FLORA          PTSUNNY   86  72  64 W22G29    30.09R THUNDER HX  92
GALESBURG      CLOUDY    76  65  69 E6        30.13S
JACKSONVILLE   PTSUNNY   80  71  74 NE8       30.09F HX  83
LACON          CLOUDY    79  65  61 SE3       30.12R HX  81
LAWRENCEVILLE  SUNNY     91  72  53 VRB6      30.06F HX  98
LITCHFIELD     CLOUDY    88  77  69 CALM      30.08F HX  99
$$


CITY           SKY/WX    TMP DP  RH WIND       PRES   REMARKS
LINCOLN        CLOUDY    80  74  80 NE6       30.10F HX  85
MACOMB         CLOUDY    74  66  75 E6        30.14S
MATTOON        CLOUDY    86  73  65 CALM      30.07F HX  93
MT CARMEL AP   SUNNY     91  71  52 S5        30.06F HX  97
OLNEY-NOBLE AP SUNNY     90  73  58 SE9       30.05F HX  98
PARIS          SUNNY     85  77  75 CALM      30.09F THUNDER HX  96
PEORIA         CLOUDY    77  69  76 E6        30.12F
PONTIAC        CLOUDY    80  69  70 E6        30.14F HX  82
RANTOUL        CLOUDY    84  74  72 NE6       30.11F HX  91
ROBINSON       MOSUNNY   89  76  65 S5        30.07F HX 101
SPRINGFIELD    CLOUDY    81  71  71 N8        30.10F HX  85
TAYLORVILLE    CLOUDY    82  76  79 N3        30.08F HX  90
$$

...REGIONAL REPORTS...


CITY           SKY/WX    TMP DP  RH WIND       PRES   REMARKS
CHICAGO O`HARE MOSUNNY   80  61  52 E6        30.14S HX  81
KANKAKEE       CLOUDY    81  68  64 NE5       30.14S HX  84
MOLINE         CLOUDY    77  64  64 E7        30.13S
MOUNT STERLING CLOUDY    75  69  79 E8        30.10F
MOUNT VERNON   CLOUDY    84  73  70 SW8       30.08S THUNDER HX  91
PITTSFIELD     CLOUDY    80  73  77 NE5       30.10F HX  84
QUINCY         CLOUDY    76  71  85 E7        30.10F
ROCKFORD       CLOUDY    76  60  57 VRB3      30.16F
$$


CITY           SKY/WX    TMP DP  RH WIND       PRES   REMARKS
BURLINGTON     CLOUDY    77  67  71 SE10      30.12F
CEDAR RAPIDS   CLOUDY    74  66  76 SE9       30.13F
DES MOINES     CLOUDY    72  63  73 NE12      30.10F
KIRKSVILLE     CLOUDY    76  68  76 E8        30.11F
OTTUMWA        CLOUDY    77  62  59 SE12      30.11F
ST LOUIS       CLOUDY    87  74  64 NW9       30.08F HX  95
$$


CITY           SKY/WX    TMP DP  RH WIND       PRES   REMARKS
TERRE HAUTE    CLOUDY    83  72  69 NE6G17    30.07F THUNDER HX  88
EVANSVILLE     MOSUNNY   91  73  55 E6        30.07F HX  99
INDIANAPOLIS   PTSUNNY   88  74  63 CALM      30.09F HX  96
LAFAYETTE      MOSUNNY   84  73  69 CALM      30.10F HX  90
MADISON        CLOUDY    73  57  57 VRB3      30.16F
MILWAUKEE      CLOUDY    73  57  57 SE7       30.17S
$$






USA.gov is the U.S. government's official web portal to all federal, state and local government web resources and services.